Погода в Емве

Россия / Республика Коми     62°35′54″N   50°53′11″E
темп.,
°C
ветер,
м/с
пор.,
м/с
влажн.,
%
обл.,
%
осадки,
мм/ч
давл.,
гПа
погр.,
м
13 апреля, вт
вт1300:00+4юз5168192 0.0 1033513
03:00+4юз5169071 0.0 1032492
06:00+4ююз4139997 0.0 1031388
09:00+6ююз41389100 0.0 1030473
12:00+8ююз51581100 0.0 1027711
15:00+8юз51389100 0.0 1025886
18:00+7юз41295100 0.0 1024755
21:00+7юз41294100 0.0 1023605
14 апреля, ср
ср1400:00+7юз41196100 0.0 1023415
03:00+6ююз41098100 0.0 1023335
06:00+6ююз41098100 0.0 1022353
09:00+8ююз41289100 0.0 1020490
12:00+14юз5116590 0.0 10191012
15:00+16юз6135837 0.0 10171528
18:00+14юз6146355 0.0 10151095
21:00+12юз6167088 0.0 1015916
15 апреля, чт
чт1500:00+10зюз5147794 0.0 1014895
03:00+4ссз4990100 0.7 1018665
06:00+4сз3781100 0.6 1019872
09:00+5сз4654100 0.6 10211244
12:00+6ссз4546100 0.0 10221479
15:00+6ссз4641100 0.0 10231838
18:00+5ссз25445 0.0 1024457
21:00
16 апреля, пт
пт1600:000ссз26725 0.0 1026122
03:000с23735 0.0 102781
06:00+1сз136456 0.0 1027163
09:00+4сз234448 0.0 10271226
12:00+5зсз344298 0.0 10271626
15:00+6зсз3646100 0.0 10261668
18:00+4сз3673100 0.1 1025898
21:00+1с611655 0.2 10261179
17 апреля, сб
сб1700:000ссз387099 0.0 1027506
03:00−1с386822 0.0 1028712
06:00−1с476356 0.0 1029974
09:00+1ссв35356 0.0 10301229
12:00+2ссв332591 0.0 10301616
15:00+3ссв2222100 0.0 10301716
18:00+2св1227100 0.0 1029139
21:000ююв2439100 0.0 1028136